{"data":{"norad_id":68684,"intl_designator":"2026-077Y","name":"STARLINK-37287","alt_names":[],"object_type":"PAYLOAD","status":"ACTIVE","operator":null,"country":"US","launch_date":"2026-04-11","launch_site_code":"AFWTR","launch_vehicle":null,"mission":null,"orbit_class":"UNKNOWN","rcs_meters":null,"size_class":null,"mass_kg":null,"dimensions":null,"purposes":["comms"],"wikipedia_slug":null,"has_3d_model":false,"image_url":null,"decayed_at":null,"tle_current":{"epoch":"2026-09-20T02:03:53.842176Z","epoch_age_seconds":79666,"freshness":"FRESH","line1":"1 68684U 26077Y   26263.08603984  .00016794  00000+0  52129-3 0  9999","line2":"2 68684  97.2880 133.0497 0001228  99.4744 260.6638 15.33450380 24958","mean_motion":15.3345038,"eccentricity":0.0001228,"inclination_deg":97.288,"raan_deg":133.0497,"arg_perigee_deg":99.4744,"mean_anomaly_deg":260.6638,"bstar":0.00052129,"rev_number":2495,"period_min":93.905875193692,"perigee_km":464.68676547032,"apogee_km":466.36756938984,"semimajor_km":6843.6641674301,"source":"CELESTRAK","updated_at":"2026-09-20T09:00:43.955014Z"}}}